Total_Precipitation_Accumulation
0.02 0.04 0.07 0.06 0.07 0.10 0.14 0.22 0.30 0.36 0.30 0.42 0.58 0.70 0.88 1.04 1.27 1.38 1.51 1.61 1.86 2.15 2.54 3.29 3.98 4.47 5.09 5.89 6.41 6.31 5.70 5.31 4.90 4.44 3.99 4.07 4.00 3.77 3.56 3.38 3.26 3.32 3.24 3.09
0.03 0.08 0.07 0.06 0.05 0.09 0.13 0.20 0.27 0.31 0.26 0.29 0.52 0.84 0.98 1.06 1.26 1.25 1.31 1.39 1.59 1.99 2.64 3.42 4.00 4.11 4.09 4.34 4.58 4.08 3.91 3.98 3.71 3.56 3.57 3.57 3.49 3.21 3.08 3.14 3.46 3.12 3.12 3.03
0.05 0.08 0.06 0.05 0.06 0.09 0.15 0.17 0.21 0.30 0.30 0.39 0.62 1.11 1.31 1.15 1.20 1.15 1.19 1.41 1.87 2.29 2.72 3.23 3.38 3.35 3.19 3.14 3.10 2.89 2.87 3.29 3.31 3.42 3.49 3.52 3.56 3.40 3.27 3.18 3.42 3.04 2.78 2.73
0.03 0.05 0.05 0.07 0.07 0.09 0.15 0.13 0.11 0.15 0.27 0.57 0.77 1.38 1.64 1.44 1.36 1.11 1.24 1.69 2.13 2.44 2.70 2.73 2.30 2.12 2.17 2.25 2.35 2.61 2.77 3.02 2.97 3.17 3.18 3.13 2.93 2.81 2.78 2.81 3.01 3.06 2.75 2.61
0.05 0.06 0.06 0.07 0.07 0.07 0.10 0.12 0.11 0.15 0.30 0.66 0.94 1.43 1.76 1.62 1.37 1.13 1.13 1.19 1.61 1.78 1.76 1.70 1.58 1.52 1.68 1.95 2.18 2.52 2.72 2.86 2.82 2.85 2.98 3.21 3.14 3.15 3.02 2.96 3.24 3.26 3.28 3.04
0.05 0.06 0.06 0.05 0.06 0.06 0.09 0.15 0.24 0.32 0.51 1.12 1.22 1.30 1.71 1.54 1.28 1.14 0.99 0.91 1.15 1.24 1.14 1.26 1.35 1.52 1.76 1.91 1.98 2.20 2.42 2.73 2.76 2.75 2.84 2.94 3.10 3.38 3.36 3.30 3.15 2.98 3.09 3.02
0.11 0.10 0.08 0.06 0.06 0.07 0.08 0.16 0.44 0.86 1.18 1.35 1.03 1.14 1.53 1.16 0.92 0.85 0.78 0.74 0.83 0.92 1.04 1.22 1.37 1.57 1.65 1.70 1.68 1.83 1.95 2.21 2.48 2.58 2.64 2.78 3.00 3.19 3.18 3.26 3.20 3.03 2.77 2.63
0.16 0.16 0.10 0.06 0.07 0.08 0.08 0.11 0.25 0.44 0.59 0.79 0.97 1.42 1.55 1.09 0.73 0.60 0.62 0.66 0.71 0.87 0.99 1.05 1.22 1.29 1.37 1.55 1.71 1.87 1.89 1.92 2.03 2.13 2.33 2.51 2.60 2.78 2.83 3.18 3.05 2.95 2.77 2.61
0.07 0.07 0.07 0.06 0.07 0.06 0.07 0.07 0.09 0.14 0.22 0.56 1.11 1.35 1.31 0.94 0.74 0.74 0.81 0.86 0.85 0.85 0.97 0.96 0.97 1.18 1.30 1.26 1.34 1.54 1.67 1.78 1.91 2.02 2.19 2.20 2.22 2.34 2.59 2.66 2.52 2.36 2.44 2.55
0.04 0.05 0.05 0.05 0.06 0.06 0.08 0.08 0.09 0.13 0.25 0.48 0.92 1.48 1.67 1.31 0.98 0.87 1.00 0.93 0.83 0.81 0.89 0.97 0.98 1.06 1.16 1.19 1.34 1.43 1.57 1.75 1.85 1.92 2.04 1.92 1.97 2.04 2.29 2.40 2.40 2.29 2.20 2.36
0.03 0.04 0.05 0.05 0.08 0.09 0.09 0.10 0.11 0.16 0.18 0.31 0.71 1.10 1.04 1.10 0.99 0.85 0.86 0.84 0.79 0.74 0.79 0.91 0.94 1.05 1.09 1.10 1.26 1.44 1.63 1.78 1.75 1.80 1.85 1.93 2.01 2.16 2.24 2.20 2.24 2.26 2.30 2.42
0.03 0.04 0.04 0.06 0.09 0.11 0.12 0.12 0.14 0.17 0.20 0.21 0.41 0.68 0.64 0.71 0.90 1.15 1.07 0.88 0.89 0.92 0.86 0.93 0.94 0.98 0.99 1.04 1.14 1.32 1.55 1.72 1.81 1.84 1.96 2.09 2.16 2.25 2.32 2.20 2.28 2.45 2.48 2.54
0.04 0.04 0.07 0.16 0.20 0.18 0.15 0.15 0.15 0.15 0.15 0.17 0.35 0.62 0.60 0.62 0.66 0.83 0.98 1.07 0.94 0.82 0.83 0.87 1.02 0.98 0.94 1.00 1.07 1.26 1.58 1.80 2.03 2.18 2.23 2.25 2.18 2.23 2.36 2.41 2.43 2.54 2.65 2.71
0.04 0.05 0.07 0.16 0.25 0.26 0.24 0.20 0.17 0.14 0.14 0.16 0.25 0.50 0.63 0.77 0.79 0.84 0.97 1.09 0.94 0.78 0.79 0.92 1.05 1.14 1.22 1.25 1.27 1.41 1.60 1.72 1.93 2.02 2.09 2.24 2.29 2.39 2.55 2.64 2.70 2.72 2.73 2.73
0.05 0.04 0.05 0.06 0.09 0.16 0.23 0.22 0.17 0.13 0.11 0.15 0.19 0.34 0.56 0.76 0.90 0.98 1.03 1.08 0.99 0.97 1.02 1.04 1.14 1.28 1.38 1.49 1.48 1.47 1.58 1.67 1.88 2.25 2.46 2.65 2.72 2.76 2.88 2.94 2.92 2.95 2.89 2.79
0.09 0.08 0.07 0.08 0.10 0.11 0.15 0.19 0.17 0.14 0.14 0.16 0.20 0.38 0.54 0.80 0.87 0.97 0.98 1.02 1.03 1.12 1.21 1.29 1.33 1.42 1.47 1.56 1.68 1.74 1.78 1.91 2.13 2.57 2.92 3.06 3.12 3.17 3.23 3.29 3.26 3.27 3.20 3.30
0.17 0.16 0.13 0.10 0.13 0.16 0.22 0.20 0.19 0.18 0.17 0.22 0.30 0.45 0.59 0.77 0.97 1.07 0.97 0.87 0.95 1.07 1.17 1.25 1.37 1.51 1.60 1.72 1.81 1.95 2.07 2.18 2.35 2.62 2.84 2.94 3.05 3.15 3.31 3.32 3.33 3.35 3.37 3.34
0.24 0.26 0.23 0.18 0.19 0.29 0.30 0.30 0.30 0.29 0.31 0.37 0.50 0.66 0.76 0.83 0.94 0.98 0.88 0.91 0.99 1.07 1.18 1.27 1.36 1.59 1.77 1.95 2.18 2.47 2.63 2.75 2.75 2.84 2.99 3.08 3.06 3.11 3.18 3.16 3.05 3.08 3.24 3.25
0.29 0.34 0.33 0.30 0.32 0.34 0.36 0.42 0.43 0.47 0.60 0.65 0.81 0.98 1.08 1.07 1.03 1.15 1.06 1.03 1.11 1.25 1.40 1.60 1.80 1.93 2.03 2.12 2.27 2.53 2.82 2.97 2.99 2.87 2.96 3.09 3.19 3.29 3.21 3.13 3.13 3.16 3.22 3.13
0.34 0.40 0.47 0.44 0.50 0.56 0.53 0.54 0.54 0.62 1.07 0.95 1.03 1.20 1.34 1.43 1.76 1.76 1.45 1.47 1.42 1.40 1.54 1.73 1.93 2.04 2.06 2.17 2.24 2.36 2.57 2.68 2.76 2.81 2.93 3.06 3.17 3.35 3.46 3.42 3.45 3.40 3.32 3.25
0.54 0.58 0.54 0.55 0.64 0.68 0.60 0.56 0.65 1.19 1.66 1.38 1.32 1.41 1.53 1.72 1.80 1.72 1.58 1.63 1.64 1.49 1.48 1.53 1.60 1.75 1.84 1.91 2.03 2.22 2.33 2.31 2.42 2.53 2.58 2.76 3.01 3.25 3.42 3.53 3.53 3.54 3.47 3.37
0.85 0.91 0.85 0.83 1.05 1.17 0.78 0.70 1.10 1.52 1.50 1.62 1.54 1.57 1.68 1.73 1.80 1.83 1.84 1.78 1.67 1.58 1.47 1.47 1.55 1.66 1.76 1.91 2.20 2.43 2.43 2.38 2.41 2.52 2.66 2.80 3.04 3.13 3.18 3.33 3.38 3.53 3.50 3.39
1.15 1.22 1.27 1.32 1.48 1.30 0.97 1.04 1.17 1.23 1.46 1.58 1.63 1.69 1.73 1.71 1.73 1.70 1.69 1.66 1.68 1.58 1.56 1.52 1.54 1.66 1.89 2.13 2.41 2.66 2.66 2.69 2.73 2.78 2.88 2.97 3.07 3.17 3.26 3.33 3.33 3.35 3.35 3.20
1.23 1.05 1.30 1.62 1.80 1.56 1.31 1.24 1.29 1.37 1.54 1.71 1.83 1.94 1.90 1.78 1.69 1.77 1.82 1.69 1.72 1.71 1.63 1.60 1.63 1.75 1.94 2.05 2.17 2.41 2.58 2.64 2.80 2.81 2.76 2.77 2.79 2.86 2.95 3.07 3.10 3.06 2.99 2.94
1.36 1.35 1.55 1.99 2.20 2.02 1.79 1.58 1.54 1.59 1.86 2.09 2.08 2.00 1.87 1.85 1.83 1.94 1.95 1.82 1.73 1.71 1.71 1.71 1.77 1.89 1.94 1.95 1.99 2.12 2.31 2.47 2.69 2.83 2.84 2.88 2.89 2.95 3.01 3.08 3.15 3.04 2.87 2.83
1.30 1.64 2.00 2.35 2.25 2.32 2.18 1.79 1.73 1.79 2.00 2.18 2.14 2.09 2.05 2.04 1.96 1.84 1.78 1.73 1.71 1.71 1.76 1.84 1.92 1.95 1.96 1.95 2.03 2.16 2.35 2.59 2.86 2.87 2.80 2.84 2.93 3.02 3.12 3.18 3.19 3.24 2.93 2.83